www.pogodaiklimat.ru

Погода и климат >> Архив погоды >> Индия >> Bhuj-Rudramata


ПОГОДА в Bhuj-Rudramata

  • Прогноз погоды в Bhuj-Rudramata
  • Монитор погоды в Bhuj-Rudramata
  • Климат города

АРХИВ ПОГОДЫ в Bhuj-Rudramata

Время (UTC), дата Ветер
(напр.,м/с)
 
Видим.   Явления Облачность Т
(С)
Тd
(С)
f
(%)
Тe
(С)
Тes
(С)
Комфортность P
(гПа)
Po
(гПа)
Тmin
(С)
Tmax
(С)
R
(мм)
R24
(мм)
S
(см)
18 19.06 ЮЗ 3 4000 м 4/4 600 м
[Sc]
+30.0 +25.5 77 +44 +44 опасность
перегрева
1000.4 1000.0
21 19.06 ЮЗ 4 4000 м 4/4 600 м
[Sc]
+29.2 +24.6 76 +41 +41 опасность
перегрева
999.5 1000.0
00 20.06 ЮЗ 4 4000 м 8/5 600 м
[Sc Ac trans]
+29.4 +25.4 79 +43 +43 опасность
перегрева
999.3 999.0
03 20.06 ЮЗ 2 4000 м 8/8 540 м
[Cu Sc]
+31.0 +25.4 72 +45 +46 опасность
перегрева
1001.3 1001.0 +28.3
06 20.06 ЮЗ 3 4000 м 8/6 600 м
[Cu Sc Ac trans]
+32.0 +24.9 66 +45 +50 опасность
перегрева
1001.4 1001.0
09 20.06 З 5 4000 м 8/8 600 м
[Cu Sc]
+34.6 +25.0 58 +48 +50 опасность
перегрева
1000.1 1000.0
12 20.06 З 4 4000 м 6/6 600 м
[Cu Sc]
+33.6 +26.1 65 +50 +51 опасность
перегрева
998.7 999.0 +36.5
15 20.06 ЮЗ 3 4000 м 6/5 600 м
[Sc Ac trans]
+31.0 +25.1 71 +45 +45 опасность
перегрева
999.3 999.0
18 20.06 ЮЗ 3 4000 м 5/5 600 м
[Sc]
+30.0 +26.7 83 +47 +47 опасность
перегрева
999.9 1000.0
21 20.06 ЮЗ 2 4000 м 5/5 600 м
[Sc]
+29.6 +26.2 82 +45 +45 опасность
перегрева
998.6 999.0
00 21.06 ЮЗ 2 4000 м 5/5 600 м
[Sc]
+29.6 +26.2 82 +45 +45 опасность
перегрева
998.5 999.0
03 21.06 З 2 4000 м 10/3 450 м
[Frnb Ac trans]
+30.0 +26.7 83 +47 +48 опасность
перегрева
1001.6 1002.0 +28.2
06 21.06 З 5 4000 м 6/6 600 м
[Cu Sc]
+33.6 +26.1 65 +50 +54 опасность
перегрева
1001.0 1001.0
09 21.06 ЮЗ 5 4000 м 8/8 600 м
[Cu Sc]
+35.0 +22.2 48 +44 +46 опасность
перегрева
999.9 1000.0
12 21.06 ЮЗ 4 4000 м 5/5 600 м
[Sc]
+34.2 +23.9 55 +46 +47 опасность
перегрева
999.2 999.0 +35.8
15 21.06 З 2 4000 м 4/4 600 м
[Sc]
+31.0 +25.4 72 +45 +45 опасность
перегрева
1000.1 1000.0
18 21.06 З 3 4000 м 6/6 600 м
[Sc]
+30.2 +26.3 80 +46 +46 опасность
перегрева
1001.3 1001.0
21 21.06 З 2 4000 м 5/5 600 м
[Sc]
+29.6 +26.2 82 +45 +45 опасность
перегрева
1000.1 1000.0
00 22.06 З 3 4000 м 5/5 600 м
[Sc]
+28.6 +26.4 88 +44 +44 опасность
перегрева
1000.2 1000.0
03 22.06 З 3 4000 м 8/8 360 м
[St Ac trans]
+29.8 +25.9 80 +45 +46 опасность
перегрева
1001.5 1002.0 +27.8
06 22.06 ЮЗ 4 4000 м 8/5 360 м
[St Ac trans]
+33.6 +24.2 58 +46 +50 опасность
перегрева
1001.7 1002.0
09 22.06 З 5 4000 м 6/6 600 м
[Cu Sc]
+36.4 +23.6 48 +47 +52 опасность
перегрева
1000.5 1001.0
12 22.06 З 5 4000 м 4/4 600 м
[Cu Sc]
+35.4 +23.0 49 +45 +47 опасность
перегрева
999.9 1000.0 +36.6
15 22.06 ЮЗ 3 4000 м 4/4 600 м
[Sc]
+31.0 +24.4 68 +43 +43 опасность
перегрева
1000.9 1001.0
18 22.06 ЮЗ 4 4000 м 3/3 600 м
[Sc]
+30.0 +24.6 73 +43 +43 опасность
перегрева
1002.4 1002.0
21 22.06 ЮЗ 3 4000 м 3/3 600 м
[Sc]
+29.4 +25.1 78 +43 +43 опасность
перегрева
1001.3 1001.0
00 23.06 ЮЗ 3 4000 м 5/5 600 м
[Sc]
+28.4 +25.6 85 +42 +42 опасность
перегрева
1001.3 1001.0
03 23.06 ЮЗ 3 4000 м 8/5 360 м
[St Ac trans]
+30.6 +24.9 72 +44 +46 опасность
перегрева
1003.0 1003.0 +28.2
06 23.06 ЮЗ 3 4000 м 9/6 360 м
[St Ac trans]
+33.2 +24.1 59 +45 +49 опасность
перегрева
1003.0 1003.0
09 23.06 ЮЗ 3 4000 м 8/8 600 м
[Cu Sc]
+35.2 +26.0 59 +51 +54 опасность
перегрева
1001.3 1001.0
12 23.06 ЮЗ 3 4000 м 8/8 600 м
[Cu Sc]
+35.2 +27.0 63 +53 +54 опасность
перегрева
1000.7 1001.0 +36.0
15 23.06 ЮЗ 3 4000 м 4/4 600 м
[Sc]
+31.2 +25.6 72 +46 +46 опасность
перегрева
1000.0 1000.0
18 23.06 ЮЗ 2 4000 м 4/4 600 м
[Sc]
+29.8 +25.9 80 +45 +45 опасность
перегрева
1001.0 1001.0
21 23.06 ЮЗ 3 4000 м 4/4 600 м
[Sc]
+29.0 +25.6 82 +43 +43 опасность
перегрева
1000.2 1000.0
00 24.06 нст 1 4000 м 5/5 600 м
[Sc]
+28.6 +26.1 86 +43 +43 опасность
перегрева
999.7 1000.0
03 24.06 ЮЗ 2 4000 м 5/5 600 м
[Sc]
+30.6 +25.5 74 +45 +48 опасность
перегрева
1000.6 1001.0 +27.4
06 24.06 ЮЗ 3 4000 м 8/8 600 м
[Cu Sc]
+34.0 +26.5 65 +51 +54 опасность
перегрева
1000.3 1000.0
09 24.06 ЮЗ 2 4000 м 8/8 600 м
[Cu Sc]
+35.6 +27.7 64 +55 +59 опасность
перегрева
998.3 998.0
12 24.06 ЮЗ 3 4000 м 8/8 600 м
[Cu Sc]
+35.4 +27.8 65 +56 +56 опасность
перегрева
996.3 996.0 +37.0
15 24.06 ЮЗ 3 4000 м 5/3 600 м
[Sc Ac trans Ci fib]
+31.6 +26.9 76 +49 +49 опасность
перегрева
997.1 997.0
18 24.06 ЮЗ 3 4000 м 4/4 600 м
[Sc]
+30.0 +25.5 77 +44 +44 опасность
перегрева
998.7 999.0
21 24.06 ЮЗ 3 4000 м 4/4 600 м
[Sc]
+29.2 +25.2 79 +42 +42 опасность
перегрева
997.9 998.0
00 25.06 нст 1 4000 м 5/5 600 м
[Sc]
+28.6 +26.1 86 +43 +43 опасность
перегрева
997.0 997.0
03 25.06 штиль 0 4000 м 6/6 600 м
[Cu Sc]
+30.0 +25.8 78 +45 +48 опасность
перегрева
997.9 998.0 +27.6
06 25.06 ЮЗ 2 4000 м 5/5 600 м
[Sc]
+36.0 +25.7 56 +51 +62 опасность
перегрева
998.1 998.0
09 25.06 Ю 2 4000 м 5/5 600 м
[Cu Sc]
+39.0 +26.4 49 +55 +64 опасность
перегрева
996.2 996.0
12 25.06 Ю 2 4000 м 6/4 600 м
[Cu Sc Ac trans]
+38.2 +23.1 42 +48 +50 опасность
перегрева
994.3 994.0 +39.8
15 25.06 ЮЗ 2 4000 м 8/8 600 м
[Cu Sc]
+34.0 +24.0 56 +46 +46 опасность
перегрева
996.7 997.0
18 25.06 штиль 0 4000 м {дождь, морось} 8/3 600 м
[Cb cap Ac trans]
+29.0 +26.2 85 +44 +44 опасность
перегрева
1000.4 1000.0 1
21 25.06 ЮЗ 2 4000 м 8/8 600 м
[Cu Sc]
+28.4 +25.6 85 +42 +42 опасность
перегрева
999.4 999.0 1
00 26.06 ЮЗ 1 4000 м 8/8 600 м
[Cu Sc]
+28.6 +25.5 83 +42 +42 опасность
перегрева
997.3 997.0 1
03 26.06 штиль 0 4000 м 8/3 600 м
[Sc Ac trans Ci fib]
+30.8 +25.7 74 +45 +49 опасность
перегрева
998.8 999.0 +26.0 1
06 26.06 нст 1 4000 м 5/5 600 м
[Cu Sc]
+35.8 +24.2 51 +48 +59 опасность
перегрева
999.2 999.0
09 26.06 СВ 2 4000 м 5/5 600 м
[Cu Sc]
+39.4 +24.9 44 +52 +62 опасность
перегрева
997.3 997.0
12 26.06 нст 1 4000 м 6/4 600 м
[Cu Sc Ac trans]
+37.8 +24.6 47 +50 +53 опасность
перегрева
995.9 996.0 +40.7
15 26.06 Ю 3 4000 м 5/1 600 м
[Sc Ac trans Ci fib]
+34.2 +25.5 61 +49 +49 опасность
перегрева
997.5 998.0

 

Местоположение метеостанции Bhuj-Rudramata (Gujarat, Индия): широта 23.25 долгота 69.67 высота над уровнем моря 80 м.

В архиве по умолчанию представлена погода в Bhuj-Rudramata за последнюю неделю. Архивные данные за месяц целиком и за предыдущие месяцы, начиная с января 2011 года, Вы можете получить, выбрав интересующий диапазон дат из раскрывающегося списка и нажав кнопку "Ввод!".

Внимание! Время в таблицах - всемирное. Для получения местного времени необходимо прибавить поправку, которая в Bhuj-Rudramata равна 5.5 ч.

Смотрите также архив погоды в соседних городах и на ближайших метеорологических станциях:

Погода в Kandla (Gujarat, Индия) (47 км)
Погода в New Kandla (Gujarat, Индия) (63 км)
Погода в Mandvi (Gujarat, Индия) (63 км)
Погода в Naliya (Gujarat, Индия) (84 км)
Погода в Okha (Gujarat, Индия) (103 км)
Погода в Dwarka (Gujarat, Индия) (115 км)
Погода в Rajkot (Gujarat, Индия) (155 км)
Погода в Badin (Пакистан) (172 км)
Погода в Porbandar (Gujarat, Индия) (178 км)
Погода в Surendranagar (Gujarat, Индия) (206 км)

Пояснения к столбцам:

Ветер - указаны скорость ветра в м/с - средняя за 10 мин, порывы в срок и между сроками (в фигурных скобках) и направление, откуда дует ветер: С - северный, СВ - северо-восточный, В - восточный, ЮВ - юго-восточный, Ю - южный, ЮЗ - юго-западный, З - западный, СЗ - северо-западный.
Видимость - горизонтальная дальность видимости в метрах или километрах. При видимости от 1 до 10 км при отсутствии осадков обычно наблюдается дымка, при ухудшении видимости до 1 км и менее - туман. В сухую погоду видимость может ухудшаться дымом, пылью или мглою.
Явления - указаны атмосферные явления, наблюдавшиеся в срок или в последний час перед сроком; фигурными скобками обозначены явления, наблюдавшиеся между сроками (за 1-3 часа до срока); квадратными скобками обозначены град или гололедные отложения с указанием их диаметра в мм.
Облачность - указаны через наклонную черту общая и нижняя облачность в баллах и высота нижней границы облаков в метрах; квадратными скобками обозначены формы облаков: Ci - перистые, Cs - перисто-слоистые, Cc - перисто-кучевые, Ac - высококучевые, As - высокослоистые, Sc - слоисто-кучевые, Ns - слоисто-дождевые, Cu - кучевые, Cb - кучево-дождевые. Подробнее классификацию облаков см. в Атласе облаков (PDF).
T - Температура воздуха - температура, измеренная на высоте 2 м над землей.
Td - Температура точки росы - температура, при понижении до которой содержащийся в воздухе водяной пар достигнет насыщения.
f - Относительная влажность воздуха - влажноcть воздуха, измеренная на высоте 2 м над землей.
Te - Эффективная температура - температура, которую ощущает одетый по сезону человек в тени. Характеристика душности погоды. При расчете учитывается влияние влажности воздуха и скорости ветра на теплоощущения человека.
Tes - Эффективная температура на солнце - температура, которую ощущает человек, с поправкой на солнечный нагрев. Характеристика знойности погоды. Зависит от высоты солнца над горизонтом, облачности и скорости ветра. Ночью, в пасмурную погоду, а также при ветре 12 м/с и более поправка равна нулю.
P - Атмосферное давление - приведенное к уровню моря атмосферное давление.
Po - Атмосферное давление - измеренное на уровне метеостанции атмосферное давление.
Tmin - Минимальная температура - минимум температуры воздуха на высоте 2 м над землей.
Tmax - Максимальная температура - максимум температуры воздуха на высоте 2 м над землей.
R - Количество осадков - Количество выпавших осадков за период времени, мм. При наведении курсора мыши на число - период времени, за который выпало указанное количество осадков.
R24 - Количество осадков - Количество выпавших осадков за 24 часа, мм.
S - Снежный покров - Высота снежного покрова, см. При наведении курсора мыши на число - состояние снежного покрова и степень покрытия местности в баллах.